Simultaneous Nadir Overpasses (SNOs) Predictions

Prediction of SNOs between LANDSAT-8 and METOP-B Satellite Orbit:

Table of predicted SNOs for the next 14.0 days since TLE Epoch: 9/7/2019
Index Date (LANDSAT-8) Time (LANDSAT-8) Lat,Lon (LANDSAT-8) SZA (LANDSAT-8 ) Date (METOP-B) Time (METOP-B) Lat,Lon (METOP-B) SZA (METOP-B ) Distance(km) Time Diff (sec)
1 09/09/2019 21:44:30 -81.15, 74.31 101.83 09/09/2019 21:43:35 -81.15, 74.20 101.87 1.91 55
2 09/09/2019 22:33:55 81.17,-117.64 78.25 09/09/2019 22:34:13 81.18,-117.50 78.27 2.42 18
3 09/12/2019 17:18:45 -81.17, 141.05 100.70 09/12/2019 17:17:56 -81.16, 140.94 100.74 1.94 49
4 09/12/2019 18:08:10 81.19, -50.92 79.38 09/12/2019 18:08:34 81.19, -50.81 79.40 2.01 24
5 09/15/2019 12:53:00 -81.16,-152.59 99.61 09/15/2019 12:52:17 -81.16,-152.71 99.64 2.08 43
6 09/15/2019 13:42:25 81.18, 15.42 80.46 09/15/2019 13:42:55 81.19, 15.51 80.49 1.39 30
7 09/18/2019 08:27:16 -81.16, -86.22 98.51 09/18/2019 08:26:39 -81.16, -86.36 98.54 2.40 37
8 09/18/2019 09:16:41 81.18, 81.77 81.56 09/18/2019 09:17:17 81.18, 81.81 81.58 0.75 36




NCC Satellite Simultaneous Nadir Overpasses (SNOs) Prediction Service
